Grizzly Air Cargo 5377


PADL
Dillingham Airport
Dillingham, Alaska, US
PAKN
King Salmon Airport
King Salmon, Alaska, US

Activity Log

Date Flight Route Aircraft Duration
No Flights Yet

Route Details

Aircraft Information
Primary: Saab 340AF
Backup: Not Available
Route Data
Distance: 73nm
Sched. Duration: 0h 30m
Avg. Duration: 0h 00m (-30m)
Times Flown: 0
Recm'd Route: DLG V453 AKN
Planned Altitude: 11,000ft
Origin Wx: PADL 051356Z AUTO 00000KT 10SM OVC035 08/05 A3006 RMK AO2 SLP182 T00780050
Dest. Wx: PAKN 051429Z AUTO 22009KT 4SM BR SCT004 OVC018 07/06 A3006 RMK AO2 T00670061 TSNO $
Notes:

Financial History
Total Freight: 0lbs
Average Load: 0lbs/flt
Fuel Used: 0lbs
Avg. Fuel Used: 0lbs/flt
Fuel Expense: $0
Avg. Fuel Expense: $0
Avg. Fuel Cost: $0/lbs
Total Gross Income: $0
Pilot Pay: $0
Total Expenses: $0
Total Revenue: $0
Average Revenue: $0